ITY1263 LIRF-LIRN

Flight info

Callsign ITY1263
Flight time 0h 40m
Altitude 23000
Route RIFFI DCT PNZ
Aircraft A320/M-SDE3FGHIRWY/LB1

Departure

Time 2026-05-04 18:04
Airport Rome–Fiumicino Leonardo da Vinci International Airport (LIRF)

Arrival

Time 2026-05-04 18:44
Airport Naples International Airport (LIRN)
Time Latitude Longitude Altitude Speed Heading
2026-05-04 17:38 41.79663 12.25967 14 ft 0 kts 295°
2026-05-04 17:53 41.79660 12.25975 15 ft 2 kts 294°
2026-05-04 17:53 41.79655 12.25992 15 ft 2 kts 295°
2026-05-04 17:53 41.79649 12.26008 16 ft 2 kts 298°
2026-05-04 17:53 41.79645 12.26019 15 ft 1 kts 313°
2026-05-04 17:54 41.79642 12.26025 15 ft 1 kts 338°
2026-05-04 17:54 41.79636 12.26029 17 ft 1 kts
2026-05-04 17:54 41.79631 12.26028 17 ft 1 kts 19°
2026-05-04 17:54 41.79626 12.26026 16 ft 1 kts 24°
2026-05-04 17:55 41.79621 12.26023 16 ft 1 kts 25°
2026-05-04 17:55 41.79616 12.26020 16 ft 1 kts 26°
2026-05-04 17:56 41.79644 12.26038 16 ft 9 kts 25°
2026-05-04 17:57 41.79697 12.26071 16 ft 8 kts 25°
2026-05-04 17:57 41.79748 12.26086 14 ft 7 kts 345°
2026-05-04 17:57 41.79774 12.26041 16 ft 6 kts 297°
2026-05-04 17:57 41.79796 12.25978 14 ft 9 kts 294°
2026-05-04 17:58 41.79830 12.25884 14 ft 14 kts 298°
2026-05-04 17:58 41.79886 12.25830 14 ft 12 kts 22°
2026-05-04 17:58 41.79950 12.25870 15 ft 8 kts 24°
2026-05-04 17:58 41.79999 12.25899 14 ft 7 kts 24°
2026-05-04 17:59 41.80042 12.25926 14 ft 6 kts 25°
2026-05-04 17:59 41.80080 12.25951 15 ft 6 kts 26°
2026-05-04 17:59 41.80211 12.26032 15 ft 22 kts 25°
2026-05-04 18:00 41.80342 12.26112 14 ft 20 kts 24°
2026-05-04 18:00 41.80458 12.26175 17 ft 14 kts
2026-05-04 18:00 41.80527 12.26234 16 ft 12 kts 66°
2026-05-04 18:00 41.80562 12.26360 17 ft 17 kts 70°
2026-05-04 18:01 41.80609 12.26529 16 ft 21 kts 69°
2026-05-04 18:01 41.80662 12.26723 17 ft 23 kts 70°
2026-05-04 18:01 41.80709 12.26894 14 ft 16 kts 70°
2026-05-04 18:02 41.80825 12.27032 15 ft 10 kts 341°
2026-05-04 18:02 41.80891 12.27001 13 ft 10 kts 340°
2026-05-04 18:02 41.80949 12.26964 13 ft 9 kts 316°
2026-05-04 18:02 41.80948 12.26892 14 ft 7 kts 248°
2026-05-04 18:03 41.80943 12.26874 14 ft 11 kts 249°
2026-05-04 18:03 41.80812 12.26405 18 ft 91 kts 249°
2026-05-04 18:03 41.80518 12.25344 16 ft 149 kts 249°
2026-05-04 18:03 41.80133 12.23901 379 ft 166 kts 249°
2026-05-04 18:04 41.79737 12.22445 1152 ft 167 kts 250°
2026-05-04 18:04 41.79257 12.20938 1577 ft 186 kts 234°
2026-05-04 18:04 41.77195 12.18561 2994 ft 199 kts 216°
2026-05-04 18:05 41.76078 12.17448 3817 ft 201 kts 206°
2026-05-04 18:05 41.74757 12.16840 4554 ft 208 kts 187°
2026-05-04 18:05 41.73231 12.16830 4982 ft 231 kts 177°
2026-05-04 18:05 41.71565 12.16929 5470 ft 252 kts 178°
2026-05-04 18:06 41.67933 12.17118 7173 ft 265 kts 178°
2026-05-04 18:06 41.66079 12.17206 8053 ft 269 kts 179°
2026-05-04 18:06 41.64191 12.17295 8913 ft 274 kts 179°
2026-05-04 18:07 41.62275 12.17388 9804 ft 278 kts 179°
2026-05-04 18:07 41.60316 12.17480 10464 ft 290 kts 180°
2026-05-04 18:07 41.58214 12.17576 10744 ft 314 kts 180°
2026-05-04 18:07 41.55950 12.17634 10980 ft 337 kts 185°
2026-05-04 18:08 41.53581 12.17153 11409 ft 350 kts 192°
2026-05-04 18:08 41.51151 12.16989 12021 ft 361 kts 175°
2026-05-04 18:08 41.48715 12.17920 12726 ft 371 kts 156°
2026-05-04 18:08 41.46601 12.19948 13420 ft 381 kts 137°
2026-05-04 18:09 41.42878 12.25108 14736 ft 390 kts 136°
2026-05-04 18:09 41.39078 12.30383 16005 ft 398 kts 136°
2026-05-04 18:10 41.37145 12.33049 16632 ft 402 kts 136°
2026-05-04 18:10 41.35191 12.35737 17264 ft 406 kts 137°
2026-05-04 18:10 41.33217 12.38449 17895 ft 410 kts 137°
2026-05-04 18:10 41.31223 12.41183 18494 ft 414 kts 137°
2026-05-04 18:11 41.29203 12.43951 18979 ft 420 kts 136°
2026-05-04 18:11 41.27161 12.46749 19510 ft 424 kts 136°
2026-05-04 18:11 41.25100 12.49569 20042 ft 427 kts 136°
2026-05-04 18:11 41.23018 12.52415 20561 ft 431 kts 136°
2026-05-04 18:12 41.20920 12.55283 21063 ft 435 kts 136°
2026-05-04 18:12 41.18805 12.58176 21555 ft 438 kts 136°
2026-05-04 18:12 41.16671 12.61096 22038 ft 442 kts 136°
2026-05-04 18:12 41.14525 12.64034 22507 ft 445 kts 135°
2026-05-04 18:13 41.12356 12.66999 22961 ft 449 kts 135°
2026-05-04 18:13 41.10174 12.69977 23112 ft 452 kts 135°
2026-05-04 18:13 41.05677 12.76092 23128 ft 471 kts 135°
2026-05-04 18:14 41.03380 12.79213 23142 ft 474 kts 135°
2026-05-04 18:14 41.01077 12.82338 23142 ft 474 kts 135°
2026-05-04 18:14 40.98771 12.85460 23140 ft 474 kts 135°
2026-05-04 18:15 40.94212 12.91687 23133 ft 475 kts 132°
2026-05-04 18:15 40.90678 12.99044 23140 ft 476 kts 113°
2026-05-04 18:15 40.89588 13.03171 23139 ft 476 kts 105°
2026-05-04 18:16 40.88696 13.07380 23144 ft 476 kts 105°
2026-05-04 18:16 40.87797 13.11599 22952 ft 477 kts 105°
2026-05-04 18:16 40.86893 13.15805 22692 ft 474 kts 105°
2026-05-04 18:17 40.85086 13.24147 22166 ft 470 kts 105°
2026-05-04 18:17 40.84187 13.28288 21908 ft 468 kts 106°
2026-05-04 18:17 40.82396 13.36520 21398 ft 465 kts 106°
2026-05-04 18:18 40.81505 13.40612 21144 ft 463 kts 106°
2026-05-04 18:18 40.80614 13.44700 20894 ft 461 kts 106°
2026-05-04 18:18 40.79728 13.48758 20648 ft 460 kts 106°
2026-05-04 18:18 40.78842 13.52806 20377 ft 457 kts 106°
2026-05-04 18:19 40.77104 13.60735 19507 ft 437 kts 106°
2026-05-04 18:19 40.76273 13.64520 19381 ft 421 kts 105°
2026-05-04 18:19 40.75770 13.68248 19263 ft 406 kts 93°
2026-05-04 18:20 40.75836 13.71895 19148 ft 391 kts 81°
2026-05-04 18:20 40.76414 13.75340 19020 ft 376 kts 70°
2026-05-04 18:20 40.77431 13.78444 18910 ft 362 kts 58°
2026-05-04 18:20 40.78727 13.81218 18795 ft 350 kts 55°
2026-05-04 18:21 40.79989 13.83869 18666 ft 331 kts 55°
2026-05-04 18:21 40.81176 13.86384 18388 ft 317 kts 55°
2026-05-04 18:21 40.82329 13.88825 17896 ft 310 kts 55°
2026-05-04 18:21 40.83464 13.91230 17349 ft 306 kts 55°
2026-05-04 18:22 40.84590 13.93614 16973 ft 305 kts 55°
2026-05-04 18:22 40.85697 13.95993 16688 ft 303 kts 56°
2026-05-04 18:22 40.86780 13.98368 16395 ft 301 kts 56°
2026-05-04 18:22 40.87850 14.00735 16103 ft 299 kts 56°
2026-05-04 18:23 40.88915 14.03095 15818 ft 298 kts 57°
2026-05-04 18:23 40.89974 14.05439 15537 ft 296 kts 57°
2026-05-04 18:23 40.91026 14.07770 15200 ft 293 kts 57°
2026-05-04 18:23 40.92051 14.10041 14708 ft 290 kts 57°
2026-05-04 18:24 40.93094 14.12350 14224 ft 287 kts 57°
2026-05-04 18:24 40.94113 14.14606 13732 ft 285 kts 57°
2026-05-04 18:24 40.95125 14.16856 13459 ft 282 kts 57°
2026-05-04 18:24 40.96125 14.19073 13215 ft 279 kts 57°
2026-05-04 18:25 40.97103 14.21237 13024 ft 277 kts 57°
2026-05-04 18:25 40.98100 14.23444 12844 ft 275 kts 57°
2026-05-04 18:25 40.99068 14.25586 12664 ft 274 kts 57°
2026-05-04 18:25 41.00044 14.27745 12486 ft 273 kts 57°
2026-05-04 18:26 41.01021 14.29908 12305 ft 272 kts 58°
2026-05-04 18:26 41.01993 14.32057 12133 ft 272 kts 58°
2026-05-04 18:26 41.02963 14.34202 11938 ft 271 kts 58°
2026-05-04 18:26 41.03928 14.36342 11772 ft 270 kts 58°
2026-05-04 18:27 41.04889 14.38480 11598 ft 270 kts 58°
2026-05-04 18:27 41.05849 14.40610 11420 ft 269 kts 58°
2026-05-04 18:27 41.06809 14.42742 11245 ft 268 kts 58°
2026-05-04 18:27 41.07765 14.44857 11090 ft 268 kts 58°
2026-05-04 18:28 41.08753 14.46960 10934 ft 269 kts 57°
2026-05-04 18:28 41.09752 14.49052 10787 ft 268 kts 57°
2026-05-04 18:28 41.10412 14.50435 10685 ft 268 kts 58°
2026-05-04 18:28 41.11406 14.52523 10539 ft 267 kts 58°
2026-05-04 18:29 41.12397 14.54608 10389 ft 267 kts 58°
2026-05-04 18:29 41.13382 14.56681 10248 ft 266 kts 58°
2026-05-04 18:29 41.14365 14.58756 10101 ft 265 kts 58°
2026-05-04 18:29 41.15343 14.60829 9940 ft 265 kts 58°
2026-05-04 18:30 41.17269 14.64984 9623 ft 264 kts 59°
2026-05-04 18:30 41.18214 14.67034 9482 ft 256 kts 59°
2026-05-04 18:30 41.19128 14.69010 9342 ft 246 kts 59°
2026-05-04 18:31 41.20000 14.70912 9207 ft 236 kts 62°
2026-05-04 18:31 41.20431 14.72944 9062 ft 226 kts 92°
2026-05-04 18:31 41.20101 14.74925 8852 ft 219 kts 120°
2026-05-04 18:31 41.19135 14.76419 8655 ft 212 kts 148°
2026-05-04 18:32 41.17881 14.77442 8507 ft 212 kts 150°
2026-05-04 18:32 41.16623 14.78462 8367 ft 212 kts 150°
2026-05-04 18:32 41.15365 14.79475 8232 ft 211 kts 155°
2026-05-04 18:32 41.13977 14.79930 8106 ft 204 kts 184°
2026-05-04 18:33 41.12671 14.79481 8007 ft 188 kts 210°
2026-05-04 18:33 41.11719 14.78390 7882 ft 177 kts 234°
2026-05-04 18:33 41.11088 14.77052 7766 ft 165 kts 238°
2026-05-04 18:33 41.10505 14.75801 7663 ft 153 kts 238°
2026-05-04 18:34 41.09951 14.74617 7589 ft 150 kts 238°
2026-05-04 18:34 41.09401 14.73462 7536 ft 147 kts 237°
2026-05-04 18:34 41.08864 14.72343 7440 ft 145 kts 237°
2026-05-04 18:34 41.08329 14.71211 7350 ft 145 kts 237°
2026-05-04 18:35 41.07797 14.70075 7268 ft 145 kts 237°
2026-05-04 18:35 41.07265 14.68935 7183 ft 145 kts 238°
2026-05-04 18:35 41.06737 14.67803 7117 ft 144 kts 238°
2026-05-04 18:35 41.06210 14.66672 7057 ft 145 kts 238°
2026-05-04 18:36 41.05683 14.65541 6909 ft 144 kts 238°
2026-05-04 18:36 41.05158 14.64414 6726 ft 144 kts 238°
2026-05-04 18:36 41.04633 14.63287 6536 ft 144 kts 237°
2026-05-04 18:36 41.04108 14.62159 6327 ft 144 kts 237°
2026-05-04 18:37 41.03582 14.61032 6111 ft 144 kts 237°
2026-05-04 18:37 41.03058 14.59909 5908 ft 143 kts 237°
2026-05-04 18:37 41.02538 14.58794 5688 ft 142 kts 238°
2026-05-04 18:37 41.02020 14.57684 5483 ft 141 kts 237°
2026-05-04 18:38 41.01502 14.56576 5287 ft 141 kts 237°
2026-05-04 18:38 41.00987 14.55473 5081 ft 140 kts 236°
2026-05-04 18:38 41.00476 14.54379 4877 ft 140 kts 237°
2026-05-04 18:38 40.99967 14.53290 4663 ft 139 kts 236°
2026-05-04 18:39 40.99458 14.52203 4462 ft 139 kts 237°
2026-05-04 18:39 40.98950 14.51115 4254 ft 139 kts 237°
2026-05-04 18:39 40.98437 14.50020 4048 ft 139 kts 237°
2026-05-04 18:39 40.97930 14.48936 3841 ft 138 kts 237°
2026-05-04 18:40 40.97424 14.47857 3644 ft 137 kts 237°
2026-05-04 18:40 40.96921 14.46782 3445 ft 137 kts 237°
2026-05-04 18:40 40.96416 14.45705 3240 ft 138 kts 237°
2026-05-04 18:40 40.95911 14.44627 3041 ft 138 kts 237°
2026-05-04 18:41 40.95406 14.43551 2830 ft 137 kts 237°
2026-05-04 18:41 40.94906 14.42485 2632 ft 136 kts 238°
2026-05-04 18:41 40.94408 14.41424 2434 ft 136 kts 238°
2026-05-04 18:41 40.93913 14.40368 2229 ft 135 kts 238°
2026-05-04 18:42 40.93417 14.39314 2034 ft 134 kts 239°
2026-05-04 18:42 40.92925 14.38265 1829 ft 135 kts 239°
2026-05-04 18:42 40.92428 14.37209 1630 ft 136 kts 239°
2026-05-04 18:42 40.91933 14.36155 1429 ft 134 kts 240°
2026-05-04 18:43 40.91436 14.35099 1224 ft 136 kts 239°
2026-05-04 18:43 40.90946 14.34056 1026 ft 135 kts 240°
2026-05-04 18:43 40.90442 14.32987 817 ft 135 kts 240°
2026-05-04 18:43 40.89953 14.31953 615 ft 134 kts 238°
2026-05-04 18:44 40.89446 14.30914 430 ft 136 kts 245°
2026-05-04 18:44 40.89140 14.30204 287 ft 134 kts 228°
2026-05-04 18:44 40.88654 14.29186 265 ft 56 kts 238°
2026-05-04 18:44 40.88498 14.28853 273 ft 31 kts 238°
2026-05-04 18:45 40.88437 14.28727 276 ft 11 kts 243°
2026-05-04 18:45 40.88382 14.28612 278 ft 16 kts 236°
2026-05-04 18:45 40.88309 14.28503 281 ft 16 kts 222°
2026-05-04 18:45 40.88247 14.28437 283 ft 9 kts 218°
2026-05-04 18:46 40.88201 14.28402 284 ft 6 kts 202°
2026-05-04 18:46 40.88171 14.28383 285 ft 4 kts 207°
2026-05-04 18:46 40.88156 14.28372 285 ft 3 kts 208°
2026-05-04 18:46 40.88093 14.28326 287 ft 11 kts 208°
2026-05-04 18:47 40.88068 14.28257 289 ft 8 kts 272°
2026-05-04 18:47 40.88051 14.28205 292 ft 5 kts 240°
2026-05-04 18:47 40.88040 14.28179 293 ft 3 kts 239°
2026-05-04 18:47 40.88009 14.28136 295 ft 6 kts 208°
2026-05-04 18:48 40.87968 14.28112 293 ft 12 kts 203°
2026-05-04 18:48 40.87891 14.28036 298 ft 10 kts 171°
2026-05-04 18:48 40.87847 14.28080 295 ft 6 kts 141°
2026-05-04 18:48 40.87841 14.28086 295 ft 0 kts 141°